Temperature
9 7 6 7 7 8 8 8 7 8 8 7 6 6 6 7 6 6 6 6 6 6 6 6 6 6 6 6 6 6 6 6 6 5 5 5 5 5 5 5 5 5 5 5
6 6 7 8 8 8 8 8 7 7 8 7 6 6 6 6 6 6 6 5 6 6 6 6 6 6 6 6 6 6 5 5 5 5 5 5 5 5 5 5 4 4 4 4
7 7 8 8 8 8 7 7 7 7 7 6 6 5 5 5 6 6 6 6 5 5 5 5 5 5 5 5 5 5 5 5 4 4 4 4 4 4 4 4 4 4 4 4
6 7 8 7 7 7 7 7 7 7 5 4 5 4 4 5 4 5 5 5 5 5 5 5 5 5 5 5 5 5 4 4 4 4 4 4 4 4 4 3 3 3 3 3
6 6 7 7 7 7 6 7 6 6 5 4 4 4 4 4 4 4 4 5 5 5 5 5 5 5 5 4 4 4 4 4 3 3 3 3 3 3 3 3 3 3 3 3
6 6 6 6 7 7 6 5 5 3 3 4 4 3 4 3 4 4 4 5 5 5 5 4 4 4 4 4 4 3 3 3 3 3 3 3 3 3 3 3 2 2 2 2
5 6 6 6 6 6 5 4 4 4 3 3 3 3 4 4 4 4 4 4 5 4 4 4 3 3 3 3 3 3 3 3 3 3 2 2 2 2 2 2 2 2 2 2
5 5 5 5 5 5 4 4 4 4 3 3 3 3 4 4 4 4 4 4 4 4 4 3 3 3 3 3 3 3 2 2 2 2 2 2 2 2 2 1 1 1 1 1
4 4 4 5 5 5 4 3 4 3 2 2 3 2 3 3 3 3 3 3 3 4 3 3 3 3 3 2 2 2 2 2 2 2 2 1 1 1 1 1 1 1 1 1
3 3 4 4 5 5 4 3 2 2 3 3 3 3 3 3 3 3 2 3 3 3 3 3 2 2 2 2 2 2 2 1 1 1 1 1 1 1 1 1 1 0 0 0
3 2 2 3 3 3 3 3 2 1 2 2 2 4 3 3 2 2 2 2 3 3 2 2 2 2 2 1 1 1 1 1 1 1 1 1 0 0 -0 -0 0 -0 -0 -0
2 1 1 2 2 3 3 3 2 2 2 1 1 3 3 2 2 2 2 2 2 2 2 2 1 1 1 1 1 1 0 0 0 0 0 0 -0 -0 -1 -1 -0 -0 -1 -1
2 1 1 2 2 2 2 2 1 1 0 0 1 3 2 2 2 2 2 2 2 2 2 1 1 1 1 0 0 -0 -0 -0 -0 -0 -0 -1 -1 -1 -1 -1 -1 -1 -1 -1
2 0 1 3 3 1 1 1 1 1 1 0 1 2 2 2 1 1 1 2 2 1 1 1 1 0 0 -0 -0 -1 -1 -1 -1 -1 -1 -1 -1 -1 -1 -1 -1 -1 -1 -1
1 -0 -1 -0 0 0 1 1 1 0 0 1 1 1 1 1 0 1 1 1 1 1 0 0 0 -0 -1 -1 -1 -1 -1 -1 -2 -2 -2 -2 -2 -2 -2 -2 -2 -2 -2 -2
-1 -1 -1 -1 0 -0 0 -0 -0 -0 -0 -0 -0 -0 -0 0 0 0 0 0 -0 -0 -0 -0 -1 -1 -1 -1 -1 -1 -2 -2 -2 -2 -2 -2 -2 -2 -2 -2 -2 -2 -2 -2
-2 -2 -1 -0 -1 -0 0 -0 -1 -1 -1 -1 -0 0 -1 -1 -1 -1 -0 -0 -0 -1 -1 -1 -1 -1 -2 -2 -2 -2 -2 -2 -2 -3 -3 -3 -2 -2 -2 -2 -2 -3 -3 -2
-3 -2 -2 -2 -1 1 1 -1 -1 -1 -2 -2 -2 -2 -1 -1 -1 -1 -0 -0 -1 -1 -1 -1 -2 -2 -2 -2 -2 -2 -2 -3 -3 -3 -3 -3 -3 -3 -3 -3 -3 -3 -3 -3
-3 -2 -3 -3 -2 -1 -0 -1 -2 -2 -1 -2 -3 -3 -2 -2 -2 -1 -1 -1 -1 -2 -2 -2 -2 -2 -2 -2 -2 -3 -3 -3 -3 -3 -3 -3 -3 -3 -3 -3 -3 -3 -3 -3
-4 -4 -3 -3 -1 -0 1 -1 -2 -1 -1 -2 -3 -3 -3 -3 -3 -2 -1 -2 -2 -2 -2 -2 -2 -2 -2 -3 -3 -3 -3 -3 -3 -4 -4 -4 -4 -4 -4 -4 -4 -4 -4 -4
-4 -4 -3 -3 -2 -1 -2 -2 -2 -1 -0 -1 -2 -2 -3 -3 -3 -2 -2 -2 -2 -2 -3 -3 -3 -3 -3 -3 -3 -3 -4 -4 -4 -4 -4 -4 -4 -4 -4 -4 -4 -4 -4 -4
-4 -4 -4 -4 -3 -1 -2 -3 -2 -1 -1 -1 -1 -2 -2 -2 -2 -2 -2 -3 -3 -3 -3 -3 -3 -3 -3 -3 -4 -4 -4 -4 -4 -4 -4 -4 -4 -5 -5 -5 -4 -5 -5 -5
-4 -3 -4 -3 -2 -2 -2 -2 -1 -1 -1 -1 -1 -2 -2 -2 -2 -3 -3 -3 -3 -3 -3 -3 -3 -3 -3 -4 -4 -4 -4 -4 -4 -4 -5 -5 -5 -5 -5 -5 -5 -5 -5 -5
-4 -4 -4 -5 -4 -3 -2 -2 -1 -1 -1 -2 -2 -2 -2 -2 -2 -3 -3 -3 -3 -4 -4 -4 -4 -4 -4 -4 -4 -4 -5 -5 -5 -5 -5 -5 -5 -5 -5 -5 -5 -5 -5 -5
-4 -5 -5 -5 -5 -4 -2 -1 -1 -2 -2 -2 -2 -3 -3 -3 -3 -3 -3 -3 -4 -4 -4 -4 -4 -4 -4 -4 -5 -5 -5 -5 -5 -5 -5 -6 -5 -6 -6 -6 -6 -6 -6 -6
-5 -5 -5 -3 -2 -3 -2 -1 -2 -2 -2 -2 -3 -3 -3 -3 -3 -3 -3 -4 -4 -4 -4 -4 -4 -5 -5 -5 -5 -5 -5 -5 -6 -6 -6 -6 -6 -6 -6 -6 -6 -6 -6 -6
Wind_Speed
2 4 2 5 5 4 4 3 3 4 3 2 5 7 7 5 4 5 5 5 5 5 3 1 2 2 2 2 2 2 2 1 1 1 1 1 1 1 1 3 4 5 5 4
4 2 5 3 2 2 2 2 2 3 1 1 3 6 6 5 6 7 8 7 6 3 1 1 1 1 2 2 2 2 2 1 1 1 1 1 0 0 1 2 3 4 4 4
5 3 2 2 1 1 2 4 4 3 2 2 2 5 4 4 3 4 5 5 5 5 4 3 2 2 1 2 2 2 1 1 1 1 1 2 2 1 1 2 1 4 4 4
1 2 0 2 2 2 4 3 3 2 1 3 1 4 6 4 4 4 5 5 5 4 4 4 2 2 2 2 1 2 1 1 1 1 2 2 1 0 1 1 1 2 3 3
2 1 1 2 2 2 3 0 1 1 2 1 1 3 7 2 5 7 6 5 4 4 5 5 4 3 2 1 1 1 2 1 1 1 1 2 1 1 0 0 0 1 2 3
1 1 0 2 0 2 2 4 5 5 4 2 5 5 7 5 7 5 4 4 4 4 4 4 3 2 1 0 1 1 2 1 1 1 1 2 2 1 0 0 1 1 1 2
2 2 2 1 3 3 4 5 4 4 2 6 3 4 8 6 5 5 5 4 3 3 4 3 3 2 2 1 1 1 1 0 0 0 0 1 3 2 2 2 2 2 1 2
1 3 2 1 3 3 2 5 6 4 5 5 2 6 7 4 3 2 2 2 2 2 3 4 4 4 3 2 2 2 1 1 1 1 1 0 1 1 2 2 2 2 2 3
3 3 2 1 0 5 4 3 4 4 1 3 6 6 7 3 3 2 2 1 1 1 2 3 3 3 3 3 3 3 2 1 1 1 1 1 1 1 1 2 2 2 2 2
3 2 2 2 2 1 3 5 5 4 3 4 6 5 5 5 4 3 2 2 2 2 2 2 2 2 3 3 2 2 2 2 2 2 2 1 2 2 2 2 2 2 2 1
2 2 2 1 3 4 2 3 4 4 4 4 4 7 4 4 3 3 4 3 3 3 2 2 2 2 2 1 2 2 2 2 1 1 1 1 1 1 1 1 2 2 2 1
2 3 2 5 3 2 3 5 6 4 4 4 4 7 4 2 1 1 3 3 2 2 2 2 1 1 1 1 1 2 2 1 2 2 1 1 1 1 1 2 2 2 2 2
3 4 1 4 3 2 1 2 3 3 3 4 5 7 2 2 3 2 3 3 3 2 2 2 2 2 2 2 2 2 2 2 1 1 1 1 1 2 2 2 3 2 3 2
2 3 5 7 6 4 4 4 4 5 4 5 8 8 7 5 5 5 5 3 3 3 3 3 3 3 3 3 3 2 2 2 2 1 1 2 2 2 2 3 2 2 3 3
3 3 3 4 4 3 5 7 7 8 8 8 8 8 9 6 5 5 4 4 3 4 4 4 4 3 3 3 3 2 2 2 2 1 2 2 2 2 2 2 2 2 3 3
2 2 1 3 3 3 5 7 8 9 7 8 7 9 7 4 3 4 5 4 4 5 5 5 4 4 4 3 3 2 2 2 2 2 2 2 2 2 2 2 2 2 3 3
2 4 2 3 4 3 7 8 8 6 6 7 9 8 3 3 4 5 5 4 5 6 6 5 5 4 4 4 3 3 3 2 2 2 2 2 2 2 2 2 2 2 3 3
4 3 2 1 2 6 6 2 5 5 6 6 6 5 5 6 6 5 4 3 4 5 5 5 4 4 4 3 2 2 2 2 2 2 2 2 2 2 2 2 3 3 3 3
3 5 3 2 3 7 7 2 3 4 6 5 6 6 4 4 4 4 2 2 3 4 5 5 4 3 3 3 2 1 1 1 2 2 2 2 2 3 2 3 3 3 3 3
3 3 3 3 3 6 6 2 0 1 5 3 4 5 3 1 3 5 2 3 4 5 4 4 3 2 2 3 1 1 2 2 2 2 2 2 2 3 3 3 3 3 3 3
1 1 3 4 5 8 5 1 2 2 6 3 4 5 4 4 6 5 4 4 4 4 4 3 2 2 2 2 1 1 1 2 2 2 1 1 2 2 3 3 2 2 3 3
6 5 5 4 5 7 3 4 5 5 2 2 3 4 4 5 5 4 4 4 4 4 4 3 2 3 3 1 1 1 2 2 1 1 1 1 2 2 2 2 2 2 2 2
6 7 5 7 7 3 3 4 4 2 3 3 3 4 4 4 4 5 4 4 3 3 3 3 2 3 3 2 1 2 3 1 1 1 1 2 2 2 2 1 2 2 2 2
4 3 3 4 7 5 5 4 4 3 4 4 4 4 4 5 5 5 4 3 3 3 3 3 2 2 3 3 2 2 2 1 0 1 1 1 1 2 2 2 2 2 2 2
5 4 3 6 7 5 5 5 4 3 3 3 4 4 4 4 5 4 4 4 3 3 3 2 2 3 4 3 2 2 1 1 1 1 1 1 2 2 2 2 2 2 2 3
4 6 6 8 7 5 6 5 4 3 4 4 4 5 4 4 5 4 4 4 3 3 3 3 3 3 3 3 3 2 2 1 1 1 1 1 1 1 2 2 3 5 4 6
Wind_Direction
70 85 184 211 197 192 182 192 231 248 242 201 229 249 248 241 221 216 211 207 210 220 226 185 154 145 133 127 126 123 114 137 115 93 93 69 5 346 6 24 35 36 32 31
65 237 234 216 210 201 207 222 252 292 310 226 260 268 252 229 220 215 211 211 214 226 249 237 208 170 165 166 163 144 144 166 166 172 183 160 156 248 351 18 25 29 27 23
168 232 235 182 192 193 241 207 222 244 340 4 347 301 264 253 229 226 216 207 208 203 203 212 225 231 193 178 184 152 152 146 163 111 88 73 55 35 15 359 354 5 16 16
201 282 191 160 204 180 246 235 203 185 109 272 159 277 269 254 264 250 231 218 218 213 203 203 206 228 210 201 171 123 125 122 105 113 141 143 148 213 284 285 294 346 3 6
239 305 127 182 213 168 207 286 129 148 146 306 229 217 279 264 254 255 242 231 228 216 200 201 203 208 212 192 151 126 113 125 133 127 158 155 168 208 240 350 303 320 343 346
233 298 208 192 160 141 117 51 46 49 73 274 223 194 270 239 231 250 246 236 228 219 202 199 197 179 171 146 107 110 123 112 146 140 157 161 164 188 137 335 285 298 298 311
334 318 341 72 74 38 79 86 32 356 344 253 237 209 249 248 243 231 234 240 228 213 198 194 192 192 195 196 165 133 151 170 236 111 256 195 184 186 198 223 237 252 271 277
159 274 265 43 154 175 176 145 160 204 233 276 284 237 254 264 289 287 261 237 219 206 205 207 204 200 201 209 195 179 185 211 223 215 276 236 194 195 219 230 242 247 251 252
174 243 327 340 60 146 145 176 165 143 190 271 266 279 297 284 321 336 349 6 271 235 230 224 217 207 205 207 209 201 197 206 221 219 248 260 227 227 234 238 239 248 258 273
145 227 283 314 42 30 147 148 113 136 181 254 279 267 254 265 277 281 282 282 280 273 273 259 241 229 222 215 212 205 202 207 219 221 229 270 265 250 240 244 249 261 272 288
116 155 306 353 204 198 145 150 146 151 176 189 257 267 236 230 249 262 272 279 262 260 254 259 259 254 236 219 198 204 209 209 217 226 245 252 270 269 260 256 257 267 270 270
123 130 242 259 268 247 198 189 159 172 227 205 217 265 283 230 278 288 296 297 284 279 278 270 262 257 243 236 233 230 233 226 239 232 240 261 272 272 264 270 276 280 274 262
138 129 40 337 322 339 241 213 185 151 154 190 207 259 308 352 337 322 302 292 289 290 298 302 291 262 255 249 249 253 248 246 256 250 242 263 265 264 263 269 278 284 279 277
125 153 189 211 230 203 235 231 200 166 200 225 230 251 284 300 305 310 307 294 289 292 294 295 292 280 276 266 256 253 255 251 248 242 248 262 266 263 266 271 277 280 279 278
112 187 224 256 270 234 235 234 216 211 213 218 242 244 264 263 266 277 284 290 304 306 302 292 288 287 291 290 275 258 266 267 256 234 241 255 271 275 273 275 277 284 285 280
89 165 198 281 284 264 261 249 228 231 232 239 255 266 262 264 270 284 286 285 291 293 292 291 290 290 282 278 271 267 273 269 246 231 243 259 267 279 274 268 272 284 291 291
146 144 153 262 308 335 271 237 208 215 219 208 232 247 265 282 273 272 280 279 280 286 292 291 289 286 283 277 263 251 257 265 240 235 247 255 257 271 272 273 274 277 277 277
153 145 153 206 29 243 249 222 199 213 244 228 239 257 254 258 272 273 260 257 280 296 298 299 298 298 295 291 284 266 255 248 248 242 245 253 261 267 275 274 270 271 270 269
172 155 151 160 232 275 288 242 176 198 264 230 234 258 273 290 305 286 243 257 272 283 286 284 282 283 290 294 292 281 275 268 261 254 257 261 263 266 268 269 271 269 270 275
64 124 144 158 201 244 257 249 228 115 275 238 220 247 268 321 298 275 287 303 302 304 300 298 305 304 294 294 300 286 283 281 269 270 271 271 267 264 265 266 273 273 271 274
112 144 184 198 229 261 255 236 107 176 259 248 228 239 235 228 238 271 295 296 297 302 309 312 312 297 285 285 285 271 278 276 282 292 289 291 285 273 267 268 270 274 278 287
180 181 199 179 212 253 216 142 184 229 272 265 257 248 241 252 272 286 287 290 304 313 321 324 320 309 304 285 230 262 273 282 303 321 313 306 298 289 292 286 288 280 276 289
201 197 196 200 221 260 211 209 241 244 258 266 265 265 248 256 267 280 284 287 294 299 306 313 311 308 308 303 253 252 282 292 309 326 314 312 319 318 315 298 294 299 289 285
242 195 196 248 262 260 254 258 270 254 250 265 266 267 250 252 262 271 278 287 293 297 300 313 316 305 303 307 308 278 292 306 281 287 302 311 315 323 326 318 306 299 292 288
226 180 210 253 270 290 267 238 244 257 256 271 283 270 248 249 261 257 263 272 279 293 301 299 289 290 295 305 306 303 300 314 307 295 297 308 311 307 318 322 309 299 280 287
212 195 202 238 235 221 253 248 223 234 253 259 271 285 277 248 253 257 261 263 269 281 289 293 292 291 294 300 302 305 304 290 275 293 304 307 306 315 325 323 326 324 318 323
Height
1509 1514 1518 1516 1515 1515 1517 1519 1521 1519 1516 1518 1519 1518 1516 1515 1515 1515 1515 1515 1514 1515 1516 1516 1516 1516 1516 1516 1516 1516 1515 1515 1515 1514 1514 1513 1512 1512 1512 1511 1510 1510 1509 1509
1514 1516 1513 1513 1514 1515 1516 1519 1520 1519 1516 1517 1519 1517 1514 1513 1512 1512 1511 1511 1511 1512 1512 1513 1513 1514 1513 1513 1513 1513 1513 1512 1512 1512 1512 1511 1510 1510 1509 1509 1508 1507 1507 1506
1513 1514 1511 1512 1514 1515 1517 1519 1519 1520 1518 1518 1520 1519 1514 1511 1510 1510 1509 1509 1509 1509 1509 1510 1511 1511 1510 1510 1510 1510 1510 1510 1510 1510 1509 1509 1508 1507 1507 1506 1505 1505 1504 1503
1513 1511 1511 1512 1514 1514 1517 1515 1516 1518 1522 1526 1524 1527 1516 1511 1509 1507 1506 1506 1506 1506 1507 1508 1508 1508 1508 1508 1508 1508 1508 1508 1507 1507 1506 1505 1504 1504 1503 1503 1503 1502 1501 1501
1514 1512 1512 1513 1513 1513 1516 1514 1516 1518 1522 1527 1526 1529 1517 1512 1508 1505 1503 1503 1503 1504 1504 1505 1505 1506 1506 1506 1505 1505 1505 1505 1505 1504 1504 1503 1503 1502 1501 1501 1500 1499 1498 1498
1513 1512 1512 1512 1512 1513 1515 1517 1520 1525 1528 1530 1524 1528 1518 1511 1504 1501 1500 1500 1500 1501 1502 1502 1503 1504 1503 1503 1503 1503 1503 1503 1502 1502 1501 1501 1500 1499 1498 1498 1497 1496 1495 1495
1515 1513 1512 1512 1513 1515 1517 1524 1534 1534 1538 1531 1523 1523 1514 1502 1499 1499 1498 1498 1498 1499 1499 1500 1500 1500 1500 1501 1500 1500 1500 1500 1499 1499 1498 1498 1497 1497 1496 1495 1494 1493 1492 1491
1518 1518 1513 1512 1514 1516 1518 1521 1531 1535 1537 1530 1523 1520 1507 1499 1497 1496 1496 1496 1497 1497 1497 1498 1498 1498 1498 1498 1498 1498 1497 1497 1497 1496 1495 1495 1494 1494 1493 1492 1492 1490 1489 1489
1518 1517 1514 1513 1513 1514 1518 1522 1522 1531 1535 1534 1524 1517 1505 1498 1497 1496 1496 1495 1495 1495 1496 1496 1496 1496 1496 1496 1495 1495 1495 1494 1494 1493 1492 1492 1491 1490 1490 1489 1489 1488 1487 1486
1515 1520 1516 1514 1514 1514 1515 1518 1527 1531 1532 1530 1522 1518 1509 1500 1498 1496 1496 1495 1495 1495 1494 1494 1494 1494 1493 1493 1493 1493 1492 1492 1491 1490 1490 1489 1488 1487 1487 1486 1485 1485 1484 1483
1514 1520 1520 1517 1517 1515 1517 1519 1521 1528 1529 1529 1528 1514 1500 1499 1497 1496 1495 1494 1494 1494 1493 1493 1492 1492 1492 1491 1490 1490 1489 1489 1488 1487 1487 1486 1485 1484 1484 1483 1482 1482 1481 1480
1514 1520 1524 1520 1516 1514 1514 1515 1520 1525 1527 1528 1527 1514 1497 1497 1496 1496 1495 1494 1494 1493 1492 1492 1491 1490 1489 1489 1488 1487 1486 1486 1485 1484 1484 1483 1482 1481 1481 1480 1479 1479 1478 1477
1513 1519 1524 1520 1521 1518 1516 1515 1517 1521 1525 1528 1525 1511 1497 1496 1496 1495 1494 1493 1493 1492 1491 1490 1489 1488 1487 1486 1485 1484 1483 1483 1482 1481 1480 1480 1479 1478 1478 1477 1476 1476 1475 1474
1510 1517 1518 1515 1512 1514 1516 1515 1515 1518 1521 1521 1514 1505 1498 1497 1496 1495 1493 1492 1491 1490 1489 1488 1487 1486 1485 1483 1482 1481 1480 1480 1479 1478 1477 1476 1476 1475 1475 1474 1474 1473 1472 1471
1510 1516 1517 1515 1512 1513 1511 1511 1511 1513 1511 1512 1505 1504 1497 1496 1495 1493 1492 1491 1489 1488 1487 1485 1484 1482 1481 1480 1479 1478 1477 1476 1475 1475 1474 1473 1473 1472 1472 1471 1471 1470 1469 1469
1511 1516 1517 1515 1511 1511 1510 1508 1509 1508 1508 1506 1504 1501 1494 1494 1493 1491 1490 1488 1487 1486 1484 1483 1481 1480 1478 1477 1475 1474 1474 1473 1472 1471 1471 1470 1470 1469 1469 1468 1468 1467 1466 1466
1514 1516 1516 1515 1515 1510 1508 1502 1504 1503 1502 1501 1500 1495 1492 1492 1490 1489 1487 1486 1485 1483 1481 1480 1478 1477 1475 1474 1472 1471 1470 1470 1469 1468 1468 1467 1467 1466 1466 1465 1464 1464 1463 1462
1513 1515 1518 1520 1517 1511 1498 1496 1496 1497 1497 1496 1494 1492 1491 1489 1487 1486 1485 1484 1482 1480 1479 1477 1475 1474 1472 1471 1470 1468 1467 1466 1465 1465 1464 1464 1463 1463 1463 1462 1461 1461 1460 1459
1510 1514 1519 1521 1518 1509 1498 1494 1495 1497 1494 1491 1491 1489 1488 1487 1485 1483 1482 1481 1479 1478 1476 1474 1473 1471 1470 1468 1467 1465 1464 1463 1462 1462 1461 1461 1460 1460 1459 1459 1458 1458 1457 1456
1511 1512 1517 1519 1514 1508 1493 1492 1491 1494 1492 1488 1487 1487 1486 1486 1487 1482 1479 1478 1476 1475 1473 1471 1470 1468 1467 1465 1464 1462 1461 1460 1459 1459 1459 1458 1458 1457 1456 1456 1455 1455 1454 1453
1514 1515 1516 1516 1514 1501 1492 1491 1492 1496 1489 1485 1484 1483 1483 1483 1482 1479 1477 1475 1474 1472 1470 1469 1467 1466 1464 1463 1461 1460 1459 1458 1458 1457 1456 1456 1455 1455 1454 1453 1453 1452 1451 1451
1509 1512 1514 1514 1512 1500 1489 1489 1491 1488 1484 1483 1482 1481 1480 1479 1477 1476 1474 1472 1471 1469 1467 1466 1464 1463 1462 1460 1459 1458 1457 1456 1456 1455 1454 1454 1453 1452 1452 1451 1450 1449 1449 1448
1503 1501 1501 1501 1496 1488 1486 1485 1484 1484 1482 1481 1480 1479 1478 1476 1474 1473 1471 1470 1468 1466 1465 1463 1462 1460 1459 1458 1457 1456 1455 1454 1454 1453 1452 1452 1451 1450 1450 1449 1448 1447 1446 1445
1497 1495 1496 1495 1488 1484 1483 1482 1482 1482 1480 1479 1478 1477 1475 1473 1472 1470 1468 1467 1465 1464 1462 1461 1459 1458 1457 1456 1455 1454 1453 1452 1452 1451 1450 1450 1449 1448 1448 1447 1446 1445 1444 1443
1491 1492 1493 1491 1485 1482 1479 1479 1479 1479 1478 1477 1476 1474 1473 1471 1469 1468 1466 1464 1463 1461 1460 1459 1457 1456 1454 1454 1453 1452 1451 1450 1450 1449 1448 1448 1447 1446 1445 1445 1444 1443 1442 1441
1485 1487 1488 1484 1478 1479 1476 1476 1476 1476 1475 1474 1473 1471 1470 1468 1467 1465 1463 1462 1460 1459 1458 1456 1455 1454 1453 1452 1451 1450 1450 1449 1448 1447 1446 1446 1445 1444 1443 1443 1442 1441 1440 1439